NVA1003 MPEJ-MPBO

Flight info

Callsign NVA1003
Flight time N/A
Altitude 10000
Route BITOR DCT GEMER DCT BDT
Aircraft PA31/L-SDFGRY/S

Departure

Time 2026-04-28 19:20
Airport Enrique Adolfo Jimenez Airport (MPEJ)

Arrival

Time N/A
Airport Bocas del Toro "Isla Colón" International Airport (MPBO)
Time Latitude Longitude Altitude Speed Heading
2026-04-28 19:13 9.36011 -79.86565 47 ft 0 kts 92°
2026-04-28 19:15 9.36005 -79.86559 47 ft 5 kts 184°
2026-04-28 19:15 9.35949 -79.86562 49 ft 17 kts 182°
2026-04-28 19:16 9.35790 -79.86565 53 ft 20 kts 181°
2026-04-28 19:16 9.35615 -79.86570 56 ft 28 kts 176°
2026-04-28 19:16 9.35422 -79.86574 59 ft 22 kts 184°
2026-04-28 19:16 9.35371 -79.86649 56 ft 11 kts 274°
2026-04-28 19:17 9.35367 -79.86732 53 ft 12 kts 236°
2026-04-28 19:17 9.35271 -79.86754 53 ft 12 kts 300°
2026-04-28 19:17 9.35283 -79.86760 53 ft 0 kts
2026-04-28 19:17 9.35299 -79.86754 53 ft 4 kts 15°
2026-04-28 19:18 9.35311 -79.86753 53 ft 0 kts 358°
2026-04-28 19:19 9.35354 -79.86754 52 ft 25 kts
2026-04-28 19:19 9.35687 -79.86740 46 ft 65 kts
2026-04-28 19:19 9.36348 -79.86725 61 ft 115 kts
2026-04-28 19:19 9.37191 -79.86694 257 ft 120 kts
2026-04-28 19:20 9.38017 -79.86758 518 ft 115 kts 355°
2026-04-28 19:20 9.38848 -79.86877 643 ft 120 kts 354°
2026-04-28 19:20 9.39569 -79.87221 955 ft 116 kts 307°
2026-04-28 19:20 9.39616 -79.88097 1126 ft 135 kts 242°
2026-04-28 19:21 9.39062 -79.88867 1440 ft 137 kts 231°
2026-04-28 19:21 9.38495 -79.89665 1741 ft 139 kts 235°
2026-04-28 19:21 9.37955 -79.90533 2006 ft 143 kts 239°
2026-04-28 19:21 9.37440 -79.91398 2366 ft 139 kts 237°
2026-04-28 19:22 9.36884 -79.92233 2705 ft 140 kts 233°
2026-04-28 19:22 9.36495 -79.92773 2939 ft 139 kts 230°
2026-04-28 19:22 9.35747 -79.93915 3142 ft 156 kts 252°
2026-04-28 19:22 9.35682 -79.94998 3488 ft 143 kts 282°
2026-04-28 19:23 9.35800 -79.95944 3969 ft 133 kts 281°
2026-04-28 19:23 9.35876 -79.96913 4227 ft 138 kts 271°
2026-04-28 19:23 9.35858 -79.97887 4580 ft 135 kts 270°
2026-04-28 19:23 9.35899 -79.98863 4840 ft 139 kts 274°
2026-04-28 19:24 9.35858 -79.99841 5127 ft 140 kts 257°
2026-04-28 19:24 9.35672 -80.00822 5427 ft 139 kts 270°
2026-04-28 19:24 9.35839 -80.01807 5643 ft 141 kts 284°
2026-04-28 19:24 9.35962 -80.02813 5883 ft 146 kts 270°
2026-04-28 19:25 9.35965 -80.03837 6156 ft 144 kts 278°
2026-04-28 19:25 9.36138 -80.04870 6495 ft 144 kts 275°
2026-04-28 19:25 9.36142 -80.05868 6960 ft 138 kts 269°
2026-04-28 19:25 9.36102 -80.06902 7155 ft 150 kts 266°
2026-04-28 19:26 9.36105 -80.07929 7599 ft 140 kts 274°
2026-04-28 19:26 9.36144 -80.08924 7900 ft 145 kts 269°
2026-04-28 19:26 9.36144 -80.09985 8182 ft 147 kts 271°
2026-04-28 19:26 9.36087 -80.11038 8533 ft 145 kts 261°
2026-04-28 19:27 9.35734 -80.12018 8767 ft 152 kts 234°
2026-04-28 19:27 9.34904 -80.12671 8969 ft 155 kts 196°
2026-04-28 19:27 9.34021 -80.13252 9263 ft 153 kts 242°
2026-04-28 19:27 9.33952 -80.14305 9545 ft 150 kts 291°
2026-04-28 19:28 9.34426 -80.15264 9831 ft 149 kts 297°
2026-04-28 19:28 9.34853 -80.16243 10115 ft 149 kts 293°
2026-04-28 19:28 9.35207 -80.17237 10388 ft 149 kts 289°
2026-04-28 19:28 9.35515 -80.18313 10443 ft 165 kts 285°
2026-04-28 19:29 9.35788 -80.19514 10435 ft 178 kts 282°
2026-04-28 19:29 9.35943 -80.20345 10433 ft 184 kts 280°
2026-04-28 19:29 9.36193 -80.22123 10430 ft 192 kts 277°
2026-04-28 19:29 9.36336 -80.23489 10429 ft 195 kts 275°
2026-04-28 19:30 9.36453 -80.24908 10429 ft 198 kts 274°
2026-04-28 19:30 9.36545 -80.26331 10428 ft 199 kts 274°
2026-04-28 19:30 9.36622 -80.27756 10428 ft 200 kts 273°
2026-04-28 19:30 9.36687 -80.29201 10428 ft 201 kts 273°
2026-04-28 19:31 9.36741 -80.30616 10428 ft 201 kts 272°
2026-04-28 19:31 9.36794 -80.32087 10428 ft 201 kts 272°
2026-04-28 19:31 9.36840 -80.33509 10428 ft 202 kts 272°
2026-04-28 19:31 9.36883 -80.34959 10428 ft 202 kts 272°
2026-04-28 19:32 9.36923 -80.36394 10427 ft 202 kts 272°
2026-04-28 19:32 9.36963 -80.37835 10427 ft 202 kts 272°
2026-04-28 19:32 9.37002 -80.39278 10428 ft 202 kts 272°
2026-04-28 19:32 9.37041 -80.40735 10428 ft 202 kts 272°
2026-04-28 19:33 9.37079 -80.42184 10428 ft 202 kts 271°
2026-04-28 19:33 9.37114 -80.43606 10428 ft 202 kts 271°
2026-04-28 19:33 9.37150 -80.45068 10428 ft 202 kts 271°
2026-04-28 19:33 9.37186 -80.46523 10428 ft 202 kts 271°
2026-04-28 19:34 9.37222 -80.47968 10428 ft 202 kts 271°
2026-04-28 19:34 9.37259 -80.49416 10428 ft 202 kts 271°
2026-04-28 19:34 9.37294 -80.50859 10428 ft 202 kts 271°
2026-04-28 19:34 9.37330 -80.52320 10428 ft 202 kts 271°
2026-04-28 19:35 9.37366 -80.53767 10428 ft 202 kts 271°
2026-04-28 19:35 9.37400 -80.55225 10428 ft 202 kts 271°
2026-04-28 19:35 9.37436 -80.56688 10428 ft 202 kts 271°
2026-04-28 19:35 9.37470 -80.58134 10428 ft 202 kts 271°
2026-04-28 19:36 9.37505 -80.59591 10428 ft 202 kts 271°
2026-04-28 19:36 9.37541 -80.61019 10428 ft 202 kts 271°
2026-04-28 19:36 9.37575 -80.62484 10428 ft 202 kts 271°
2026-04-28 19:36 9.37610 -80.63947 10428 ft 202 kts 271°
2026-04-28 19:37 9.37645 -80.65398 10427 ft 202 kts 271°
2026-04-28 19:37 9.37667 -80.66351 10427 ft 202 kts 271°
2026-04-28 19:37 9.37709 -80.68292 10427 ft 202 kts 271°
2026-04-28 19:37 9.37743 -80.69753 10427 ft 202 kts 271°
2026-04-28 19:38 9.37777 -80.71188 10427 ft 202 kts 271°
2026-04-28 19:38 9.37811 -80.72643 10427 ft 202 kts 271°
2026-04-28 19:38 9.37770 -80.74096 10424 ft 201 kts 255°
2026-04-28 19:38 9.37195 -80.75396 10430 ft 201 kts 243°
2026-04-28 19:39 9.36583 -80.76704 10427 ft 201 kts 244°
2026-04-28 19:39 9.35969 -80.78023 10427 ft 201 kts 244°
2026-04-28 19:39 9.35351 -80.79331 10427 ft 201 kts 244°
2026-04-28 19:39 9.34730 -80.80630 10427 ft 201 kts 243°
2026-04-28 19:40 9.34089 -80.81932 10427 ft 201 kts 242°
2026-04-28 19:40 9.33408 -80.83213 10427 ft 201 kts 240°
2026-04-28 19:40 9.32728 -80.84473 10427 ft 201 kts 240°
2026-04-28 19:40 9.32033 -80.85746 10427 ft 201 kts 240°
2026-04-28 19:41 9.31339 -80.87002 10427 ft 201 kts 240°
2026-04-28 19:41 9.30634 -80.88262 10427 ft 201 kts 239°
2026-04-28 19:41 9.29963 -80.89540 10426 ft 201 kts 252°
2026-04-28 19:41 9.29937 -80.90977 10442 ft 201 kts 275°
2026-04-28 19:42 9.30029 -80.92420 10445 ft 201 kts 273°
2026-04-28 19:42 9.30108 -80.93868 10452 ft 201 kts 273°
2026-04-28 19:42 9.30180 -80.95309 10458 ft 201 kts 273°
2026-04-28 19:42 9.30224 -80.96278 10463 ft 201 kts 272°
2026-04-28 19:43 9.30245 -80.96752 10465 ft 201 kts 272°
2026-04-28 19:43 9.30265 -80.97235 10468 ft 201 kts 272°